Hourly Weather Astana (Nur-Sultan)

Today, 1 August, Sunday

Time Temperature Precipitation Wind Pressure Humidity
00:00 +23°C° 0 mm 2 mps 728 mmHg 53%
01:00 +22°C° 0 mm 1 mps 727 mmHg 55%
02:00 +22°C° 0 mm 1 mps 727 mmHg 57%
03:00 +21°C° 0 mm 1 mps 727 mmHg 59%
04:00 +20°C° 0 mm 2 mps 727 mmHg 62%
05:00 +20°C° 0 mm 2 mps 728 mmHg 67%
06:00 +21°C° 0 mm 2 mps 728 mmHg 62%
07:00 +24°C° 0 mm 3 mps 728 mmHg 57%
08:00 +26°C° 0 mm 3 mps 728 mmHg 53%
09:00 +27°C° 0 mm 3 mps 728 mmHg 47%
10:00 +29°C° 0 mm 3 mps 728 mmHg 42%
11:00 +30°C° 0 mm 3 mps 728 mmHg 36%
12:00 +31°C° 0 mm 3 mps 728 mmHg 35%
13:00 +33°C° 0 mm 3 mps 728 mmHg 34%
14:00 +34°C° 0 mm 3 mps 728 mmHg 32%
15:00 +34°C° 0 mm 3 mps 727 mmHg 32%
16:00 +34°C° 0 mm 3 mps 727 mmHg 31%
17:00 +34°C° 0 mm 2 mps 727 mmHg 30%
18:00 +31°C° 0 mm 3 mps 727 mmHg 35%
19:00 +30°C° 0 mm 3 mps 727 mmHg 39%
20:00 +28°C° 0 mm 4 mps 726 mmHg 44%
21:00 +26°C° 0.2 mm 3 mps 726 mmHg 50%
22:00 +25°C° 0.2 mm 3 mps 726 mmHg 56%
23:00 +24°C° 0.2 mm 2 mps 726 mmHg 62%

Tomorrow, 2 August, Monday

Time Temperature Precipitation Wind Pressure Humidity
00:00 +23°C° 0 mm 2 mps 726 mmHg 62%
01:00 +22°C° 0 mm 3 mps 726 mmHg 62%
02:00 +21°C° 0 mm 3 mps 726 mmHg 63%
03:00 +21°C° 0 mm 3 mps 726 mmHg 64%
04:00 +21°C° 0 mm 3 mps 726 mmHg 65%
05:00 +21°C° 0 mm 3 mps 726 mmHg 65%
06:00 +24°C° 0 mm 3 mps 726 mmHg 61%
07:00 +26°C° 0 mm 3 mps 727 mmHg 56%
08:00 +28°C° 0 mm 3 mps 727 mmHg 52%
09:00 +29°C° 0 mm 4 mps 727 mmHg 45%
10:00 +30°C° 0 mm 4 mps 727 mmHg 39%
11:00 +33°C° 0 mm 5 mps 727 mmHg 33%
12:00 +33°C° 0 mm 6 mps 727 mmHg 32%
13:00 +33°C° 0 mm 7 mps 727 mmHg 31%
14:00 +33°C° 0 mm 8 mps 727 mmHg 30%
15:00 +33°C° 0 mm 7 mps 727 mmHg 29%
16:00 +33°C° 0 mm 5 mps 727 mmHg 29%
17:00 +32°C° 0 mm 4 mps 727 mmHg 28%
18:00 +30°C° 0 mm 4 mps 727 mmHg 30%
19:00 +29°C° 0 mm 4 mps 727 mmHg 32%
20:00 +27°C° 0 mm 4 mps 727 mmHg 35%
21:00 +26°C° 0 mm 4 mps 727 mmHg 38%
22:00 +24°C° 0 mm 3 mps 727 mmHg 42%
23:00 +22°C° 0 mm 3 mps 728 mmHg 46%

Day after tomorrow, 3 August, Tuesday

Time Temperature Precipitation Wind Pressure Humidity
00:00 +21°C° 0 mm 3 mps 728 mmHg 48%
01:00 +20°C° 0 mm 2 mps 728 mmHg 50%
02:00 +20°C° 0 mm 1 mps 728 mmHg 52%
03:00 +20°C° 0 mm 1 mps 728 mmHg 53%
04:00 +20°C° 0 mm 1 mps 728 mmHg 54%
05:00 +20°C° 0 mm 1 mps 728 mmHg 55%
06:00 +21°C° 0 mm 2 mps 728 mmHg 50%
07:00 +24°C° 0 mm 3 mps 728 mmHg 45%
08:00 +26°C° 0 mm 4 mps 729 mmHg 40%
09:00 +27°C° 0 mm 5 mps 729 mmHg 37%
10:00 +28°C° 0 mm 5 mps 729 mmHg 34%
11:00 +29°C° 0 mm 5 mps 729 mmHg 31%
12:00 +30°C° 0 mm 5 mps 728 mmHg 30%
13:00 +30°C° 0 mm 5 mps 728 mmHg 29%
14:00 +32°C° 0 mm 5 mps 728 mmHg 27%
15:00 +30°C° 0 mm 5 mps 728 mmHg 27%
16:00 +30°C° 0 mm 5 mps 728 mmHg 27%
17:00 +30°C° 0 mm 5 mps 728 mmHg 27%
18:00 +28°C° 0 mm 5 mps 728 mmHg 32%
19:00 +26°C° 0 mm 5 mps 728 mmHg 36%
20:00 +25°C° 0 mm 5 mps 729 mmHg 41%
21:00 +22°C° 0 mm 4 mps 729 mmHg 45%
22:00 +21°C° 0 mm 3 mps 729 mmHg 49%
23:00 +19°C° 0 mm 2 mps 729 mmHg 53%

4 August, Wednesday

Time Temperature Precipitation Wind Pressure Humidity
00:00 +19°C° 0 mm 2 mps 728 mmHg 54%
01:00 +19°C° 0 mm 2 mps 728 mmHg 55%
02:00 +19°C° 0 mm 1 mps 728 mmHg 56%
03:00 +19°C° 0 mm 1 mps 728 mmHg 56%
04:00 +19°C° 0 mm 1 mps 729 mmHg 57%
05:00 +19°C° 0 mm 1 mps 729 mmHg 57%
06:00 +20°C° 0 mm 2 mps 729 mmHg 52%
07:00 +23°C° 0 mm 2 mps 729 mmHg 48%
08:00 +25°C° 0 mm 3 mps 729 mmHg 43%
09:00 +26°C° 0 mm 3 mps 729 mmHg 40%
10:00 +28°C° 0 mm 4 mps 729 mmHg 38%
11:00 +30°C° 0 mm 4 mps 729 mmHg 35%
12:00 +30°C° 0 mm 4 mps 729 mmHg 32%
13:00 +32°C° 0 mm 4 mps 728 mmHg 28%
14:00 +33°C° 0 mm 4 mps 728 mmHg 25%
15:00 +32°C° 0 mm 5 mps 728 mmHg 28%
16:00 +30°C° 0 mm 5 mps 728 mmHg 31%
17:00 +29°C° 0 mm 6 mps 728 mmHg 33%
18:00 +28°C° 0 mm 5 mps 728 mmHg 38%
19:00 +26°C° 0 mm 3 mps 728 mmHg 44%
20:00 +25°C° 0 mm 2 mps 728 mmHg 49%
21:00 +24°C° 0 mm 2 mps 728 mmHg 51%
22:00 +23°C° 0 mm 2 mps 728 mmHg 53%
23:00 +21°C° 0 mm 3 mps 728 mmHg 55%

5 August, Thursday

Time Temperature Precipitation Wind Pressure Humidity
00:00 +20°C° 0 mm 3 mps 728 mmHg 56%
01:00 +20°C° 0 mm 2 mps 728 mmHg 58%
02:00 +19°C° 0 mm 2 mps 728 mmHg 59%
03:00 +19°C° 0 mm 2 mps 728 mmHg 60%
04:00 +18°C° 0 mm 2 mps 728 mmHg 61%
05:00 +18°C° 0 mm 2 mps 728 mmHg 61%
06:00 +20°C° 0 mm 2 mps 728 mmHg 55%
07:00 +21°C° 0 mm 2 mps 728 mmHg 49%
08:00 +24°C° 0 mm 2 mps 729 mmHg 43%
09:00 +26°C° 0 mm 2 mps 729 mmHg 40%
10:00 +27°C° 0 mm 2 mps 729 mmHg 37%
11:00 +29°C° 0 mm 3 mps 729 mmHg 34%
12:00 +29°C° 0 mm 3 mps 729 mmHg 32%
13:00 +30°C° 0 mm 3 mps 728 mmHg 31%
14:00 +31°C° 0 mm 3 mps 728 mmHg 30%
15:00 +31°C° 0 mm 3 mps 728 mmHg 29%
16:00 +33°C° 0 mm 3 mps 728 mmHg 29%
17:00 +33°C° 0 mm 3 mps 728 mmHg 29%
18:00 +30°C° 0 mm 2 mps 727 mmHg 33%
19:00 +28°C° 0 mm 2 mps 727 mmHg 36%
20:00 +26°C° 0 mm 2 mps 727 mmHg 40%
21:00 +25°C° 0 mm 2 mps 727 mmHg 42%
22:00 +24°C° 0 mm 3 mps 727 mmHg 44%
23:00 +22°C° 0 mm 3 mps 727 mmHg 46%

6 August, Friday

Time Temperature Precipitation Wind Pressure Humidity
00:00 +22°C° 0 mm 3 mps 727 mmHg 47%
01:00 +21°C° 0 mm 3 mps 726 mmHg 47%
02:00 +21°C° 0 mm 3 mps 726 mmHg 48%
03:00 +21°C° 0 mm 2 mps 726 mmHg 50%
04:00 +20°C° 0 mm 2 mps 726 mmHg 51%
05:00 +20°C° 0 mm 2 mps 726 mmHg 53%
06:00 +23°C° 0 mm 2 mps 726 mmHg 49%
07:00 +25°C° 0 mm 2 mps 726 mmHg 45%
08:00 +27°C° 0 mm 1 mps 727 mmHg 40%
09:00 +29°C° 0 mm 1 mps 726 mmHg 37%
10:00 +31°C° 0 mm 1 mps 726 mmHg 34%
11:00 +32°C° 0 mm 1 mps 726 mmHg 31%
12:00 +33°C° 0 mm 1 mps 726 mmHg 29%
13:00 +35°C° 0 mm 2 mps 725 mmHg 26%
14:00 +36°C° 0 mm 2 mps 725 mmHg 24%
15:00 +36°C° 0 mm 2 mps 725 mmHg 23%
16:00 +36°C° 0 mm 2 mps 725 mmHg 23%
17:00 +35°C° 0 mm 1 mps 724 mmHg 22%
18:00 +34°C° 0.1 mm 2 mps 724 mmHg 28%
19:00 +30°C° 0.1 mm 2 mps 724 mmHg 33%
20:00 +28°C° 0.1 mm 3 mps 724 mmHg 39%
21:00 +26°C° 0.6 mm 3 mps 724 mmHg 49%
22:00 +24°C° 0.6 mm 3 mps 724 mmHg 58%
23:00 +22°C° 0.6 mm 3 mps 724 mmHg 67%
Show more